Orr, MN

10:45 AM CDT on May 26, 2017 (GMT -0500)
Orr Regional

Weather History for KORB - January, 2014

Change the Weather History Date:

Friday, January 31, 2014

  Actual Average Record
Temperature  
Mean Temperature -8 °F -  
Max Temperature 3 °F 19 °F 44 °F (1999)
Min Temperature -20 °F 2 °F -23 °F (2004)
Degree Days  
Heating Degree Days 74    
Moisture  
Dew Point -18 °F    
Average Humidity 65    
Maximum Humidity 77    
Minimum Humidity 43    
Precipitation  
Precipitation 0.00 in - - ()
Sea Level Pressure  
Sea Level Pressure 29.84 in    
Wind  
Wind Speed 3 mph (SSW)    
Max Wind Speed 12 mph    
Max Gust Speed 16 mph    
Visibility 10 miles    
Events Snow    
Averages and records for this station are not official NWS values.
T = Trace of Precipitation, MM = Missing Value Source: NWS Daily Summary

Daily Weather History Graph

Daily Weather History Graph

Search for Another Location

Airport or City:

Trip Planner

Search our weather history database for the weather conditions in past years. The results will help you decide how hot, cold, wet, or windy it might be!

Date:

Astronomy

Jan. 31, 2014 Rise Set
Actual Time 7:40 AM CST 5:10 PM CST
Civil Twilight 7:06 AM CST 5:43 PM CST
Nautical Twilight 6:29 AM CST 6:20 PM CST
Astronomical Twilight 5:53 AM CST 6:57 PM CST
Moon 7:42 AM CST (1/31) 6:45 PM CST (1/31)
Length of Visible Light 10h 36m
Length of Day
9h 29m
New Moon, 1% of the Moon is Illuminated
Jan 31
New Moon
Feb 6
First Quarter
Feb 14
Full
Feb 22
Last Quarter
Mar 1
New

Hourly Weather History & Observations

Time (CST) Temp. Windchill Dew Point Humidity Pressure Visibility Wind Dir Wind Speed Gust Speed Precip Events Conditions
12:13 AM -14.8 °F - -22.0 °F 70% 29.84 in 10.0 mi Calm Calm - N/A   Clear
12:33 AM -16.6 °F - -23.8 °F 70% 29.85 in 10.0 mi Calm Calm - N/A   Clear
12:53 AM -16.6 °F -26.8 °F -22.0 °F 76% 29.85 in 10.0 mi West 3.5 mph - N/A   Clear
1:13 AM -16.6 °F - -23.8 °F 70% 29.85 in 10.0 mi Calm Calm - N/A   Clear
1:33 AM -18.4 °F - -25.6 °F 70% 29.85 in 10.0 mi Calm Calm - N/A   Clear
1:53 AM -20.2 °F - -25.6 °F 76% 29.85 in 10.0 mi Calm Calm - N/A   Scattered Clouds
2:13 AM -20.2 °F - -25.6 °F 76% 29.85 in 10.0 mi Calm Calm - N/A   Mostly Cloudy
2:33 AM -20.2 °F - -25.6 °F 76% 29.85 in 10.0 mi Calm Calm - N/A Snow Light Snow
2:53 AM -18.4 °F - -23.8 °F 76% 29.85 in 10.0 mi Calm Calm - N/A   Scattered Clouds
3:13 AM -18.4 °F - -25.6 °F 70% 29.86 in 10.0 mi Calm Calm - N/A   Scattered Clouds
3:33 AM -16.6 °F - -23.8 °F 70% 29.85 in 10.0 mi Calm Calm - N/A   Mostly Cloudy
3:53 AM -16.6 °F -26.8 °F -23.8 °F 70% 29.85 in 10.0 mi WSW 3.5 mph - N/A   Mostly Cloudy
4:13 AM -16.6 °F - -23.8 °F 70% 29.85 in 10.0 mi Calm Calm - N/A   Scattered Clouds
4:33 AM -18.4 °F -28.9 °F -23.8 °F 76% 29.85 in 10.0 mi SW 3.5 mph - N/A   Clear
4:53 AM -16.6 °F - -23.8 °F 70% 29.85 in 10.0 mi Calm Calm - N/A   Clear
5:13 AM -16.6 °F - -23.8 °F 70% 29.85 in 10.0 mi Calm Calm - N/A   Scattered Clouds
5:33 AM -18.4 °F -28.9 °F -23.8 °F 76% 29.85 in 10.0 mi SSW 3.5 mph - N/A   Mostly Cloudy
5:53 AM -16.6 °F -29.3 °F -23.8 °F 70% 29.85 in 10.0 mi SSW 4.6 mph - N/A   Overcast
6:13 AM -18.4 °F -31.4 °F -23.8 °F 76% 29.86 in 10.0 mi SSW 4.6 mph - N/A   Overcast
6:33 AM -18.4 °F -28.9 °F -25.6 °F 70% 29.86 in 10.0 mi SSW 3.5 mph - N/A   Scattered Clouds
6:53 AM -18.4 °F - -25.6 °F 70% 29.87 in 10.0 mi Calm Calm - N/A   Clear
7:13 AM -18.4 °F -31.4 °F -25.6 °F 70% 29.86 in 10.0 mi South 4.6 mph - N/A   Clear
7:33 AM -20.2 °F -30.9 °F -25.6 °F 76% 29.87 in 10.0 mi SSW 3.5 mph - N/A   Clear
7:53 AM -18.4 °F - -25.6 °F 70% 29.86 in 10.0 mi Calm Calm - N/A   Clear
8:13 AM -18.4 °F -31.4 °F -25.6 °F 70% 29.86 in 10.0 mi SSW 4.6 mph - N/A   Clear
8:33 AM -16.6 °F -29.3 °F -23.8 °F 70% 29.87 in 10.0 mi SSW 4.6 mph - N/A   Clear
8:54 AM -14.8 °F -29.1 °F -22.0 °F 70% 29.87 in 10.0 mi SSW 5.8 mph - N/A   Clear
9:13 AM -14.8 °F -29.1 °F -20.2 °F 77% 29.87 in 10.0 mi SSW 5.8 mph - N/A   Clear
9:33 AM -11.2 °F -27.8 °F -18.4 °F 70% 29.87 in 10.0 mi SW 8.1 mph - N/A   Clear
9:53 AM -11.2 °F -23.0 °F -18.4 °F 70% 29.87 in 10.0 mi SW 4.6 mph - N/A   Clear
10:13 AM -7.6 °F -20.6 °F -16.6 °F 65% 29.86 in 10.0 mi SW 5.8 mph - N/A   Clear
10:33 AM -5.8 °F -18.4 °F -14.8 °F 65% 29.86 in 10.0 mi SW 5.8 mph - N/A   Clear
10:53 AM -5.8 °F -21.2 °F -16.6 °F 60% 29.87 in 10.0 mi SW 8.1 mph - N/A   Clear
11:13 AM -4.0 °F -16.3 °F -16.6 °F 55% 29.86 in 10.0 mi SW 5.8 mph - N/A   Clear
11:33 AM -2.2 °F -15.6 °F -16.6 °F 50% 29.86 in 10.0 mi SW 6.9 mph - N/A   Clear
11:53 AM -2.2 °F -18.0 °F -16.6 °F 50% 29.86 in 10.0 mi SW 9.2 mph - N/A   Clear
12:13 PM -2.2 °F -16.8 °F -16.6 °F 50% 29.86 in 10.0 mi SW 8.1 mph 16.1 mph N/A   Clear
12:33 PM -0.4 °F -10.4 °F -14.8 °F 51% 29.85 in 10.0 mi WSW 4.6 mph - N/A   Clear
12:53 PM -0.4 °F -14.7 °F -14.8 °F 51% 29.84 in 10.0 mi WSW 8.1 mph - N/A   Clear
1:13 PM 1.4 °F -9.9 °F -14.8 °F 47% 29.84 in 10.0 mi SSW 5.8 mph - N/A   Clear
1:33 PM 1.4 °F -13.5 °F -14.8 °F 47% 29.84 in 10.0 mi SSW 9.2 mph - N/A   Clear
1:53 PM 1.4 °F -11.3 °F -14.8 °F 47% 29.85 in 10.0 mi WSW 6.9 mph - N/A   Clear
2:13 PM 3.2 °F -13.1 °F -14.8 °F 43% 29.85 in 10.0 mi SSW 11.5 mph - N/A   Clear
2:33 PM 1.4 °F -15.3 °F -14.8 °F 47% 29.84 in 10.0 mi SSW 11.5 mph - N/A   Clear
2:54 PM 3.2 °F -9.1 °F -13.0 °F 47% 29.83 in 10.0 mi SW 6.9 mph - N/A   Clear
3:13 PM 1.4 °F -12.5 °F -13.0 °F 51% 29.83 in 10.0 mi SSW 8.1 mph - N/A   Clear
3:33 PM 3.2 °F -10.3 °F -13.0 °F 47% 29.83 in 10.0 mi SW 8.1 mph - N/A   Clear
3:53 PM 1.4 °F -12.5 °F -11.2 °F 56% 29.83 in 10.0 mi SW 8.1 mph - N/A   Clear
4:13 PM 1.4 °F -14.5 °F -13.0 °F 51% 29.82 in 10.0 mi South 10.4 mph - N/A   Clear
4:33 PM 1.4 °F -13.5 °F -13.0 °F 51% 29.83 in 10.0 mi SSW 9.2 mph - N/A   Clear
4:53 PM -0.4 °F -12.0 °F -14.8 °F 51% 29.82 in 10.0 mi South 5.8 mph - N/A   Clear
5:13 PM -0.4 °F -10.4 °F -14.8 °F 51% 29.82 in 10.0 mi South 4.6 mph - N/A   Clear
5:33 PM -2.2 °F -10.4 °F -14.8 °F 55% 29.82 in 10.0 mi South 3.5 mph - N/A   Clear
5:53 PM -4.0 °F -12.4 °F -14.8 °F 60% 29.82 in 10.0 mi South 3.5 mph - N/A   Clear
6:13 PM -2.2 °F -12.5 °F -13.0 °F 60% 29.81 in 10.0 mi SE 4.6 mph - N/A   Clear
6:33 PM -4.0 °F -12.4 °F -13.0 °F 65% 29.82 in 10.0 mi SSE 3.5 mph - N/A   Clear
6:53 PM -4.0 °F -12.4 °F -14.8 °F 60% 29.81 in 10.0 mi SSE 3.5 mph - N/A   Clear
7:13 PM -4.0 °F -14.6 °F -14.8 °F 60% 29.81 in 10.0 mi SSE 4.6 mph - N/A   Clear
7:33 PM -5.8 °F -14.5 °F -14.8 °F 65% 29.81 in 10.0 mi SSE 3.5 mph - N/A   Clear
7:53 PM -4.0 °F -12.4 °F -13.0 °F 65% 29.81 in 10.0 mi SE 3.5 mph - N/A   Clear
8:13 PM -5.8 °F -14.5 °F -13.0 °F 71% 29.81 in 10.0 mi SSE 3.5 mph - N/A   Clear
8:33 PM -5.8 °F -16.7 °F -13.0 °F 71% 29.81 in 10.0 mi SE 4.6 mph - N/A   Clear
8:53 PM -5.8 °F -14.5 °F -13.0 °F 71% 29.81 in 10.0 mi SE 3.5 mph - N/A   Clear
9:13 PM -5.8 °F -16.7 °F -11.2 °F 77% 29.81 in 10.0 mi SE 4.6 mph - N/A   Clear
9:33 PM -5.8 °F -14.5 °F -13.0 °F 71% 29.81 in 10.0 mi SSE 3.5 mph - N/A   Clear
9:53 PM -5.8 °F -16.7 °F -11.2 °F 77% 29.82 in 10.0 mi SSE 4.6 mph - N/A   Clear
10:13 PM -5.8 °F - -11.2 °F 77% 29.82 in 10.0 mi Calm Calm - N/A   Clear
10:33 PM -5.8 °F -14.5 °F -11.2 °F 77% 29.81 in 10.0 mi SSE 3.5 mph - N/A   Clear
10:53 PM -5.8 °F - -11.2 °F 77% 29.82 in 10.0 mi Calm Calm - N/A   Clear
11:13 PM -5.8 °F - -11.2 °F 77% 29.82 in 10.0 mi Calm Calm - N/A   Clear
11:33 PM -5.8 °F -14.5 °F -11.2 °F 77% 29.82 in 10.0 mi SSE 3.5 mph - N/A   Clear
11:53 PM -5.8 °F -14.5 °F -11.2 °F 77% 29.82 in 10.0 mi South 3.5 mph - N/A   Clear